Weather History for KBED - July, 2013

Change the Weather History Date:

Sunday, July 7, 2013

  Actual Average Record
Temperature  
Mean Temperature 78 °F -  
Max Temperature 91 °F 83 °F 98 °F (1993)
Min Temperature 66 °F 58 °F 42 °F (1965)
Cooling Degree Days 14    
Growing Degree Days 28 (Base 50)    
Moisture  
Dew Point 69 °F    
Average Humidity 77    
Maximum Humidity 96    
Minimum Humidity 52    
Precipitation  
Precipitation 0.03 in - - ()
Sea Level Pressure  
Sea Level Pressure 30.00 in    
Wind  
Wind Speed 2 mph (WSW)    
Max Wind Speed 9 mph    
Max Gust Speed -    
Visibility 10 miles    
Events Rain    
Averages and records for this station are not official NWS values.
T = Trace of Precipitation, MM = Missing Value Source: NWS Daily Summary

Daily Weather History Graph

Daily Weather History Graph

Search for Another Location

Airport or City:

Trip Planner

Search our weather history database for the weather conditions in past years. The results will help you decide how hot, cold, wet, or windy it might be!

Date:

Astronomy

Jul. 07, 2013 Rise Set
Actual Time 5:15 AM EDT 8:24 PM EDT
Civil Twilight 4:41 AM EDT 8:58 PM EDT
Nautical Twilight 3:57 AM EDT 9:42 PM EDT
Astronomical Twilight 3:04 AM EDT 10:35 PM EDT
Moon 4:50 AM EDT (7/7) 7:44 PM EDT (7/7)
Length of Visible Light 16h 17m
Length of Day
15h 09m
Waning Crescent, 0% of the Moon is Illuminated
Jul 7
Waning Crescent
Jul 8
New
Jul 15
First Quarter
Jul 22
Full
Jul 29
Last Quarter

Hourly Weather History & Observations

Time (EDT) Temp. Heat Index Dew Point Humidity Pressure Visibility Wind Dir Wind Speed Gust Speed Precip Events Conditions
12:56 AM 70.0 °F - 63.0 °F 78% 30.04 in 10.0 mi Calm Calm - N/A   Clear
1:56 AM 71.1 °F - 63.0 °F 75% 30.05 in 10.0 mi Calm Calm - N/A   Clear
2:56 AM 66.9 °F - 63.0 °F 87% 30.04 in 10.0 mi Calm Calm - N/A   Clear
3:56 AM 66.0 °F - 64.0 °F 93% 30.03 in 10.0 mi Calm Calm - N/A   Clear
4:56 AM 66.9 °F - 64.9 °F 93% 30.03 in 10.0 mi Calm Calm - N/A   Clear
5:56 AM 66.0 °F - 64.9 °F 96% 30.03 in 9.0 mi Calm Calm - N/A   Clear
6:56 AM 73.0 °F - 66.9 °F 81% 30.04 in 10.0 mi Calm Calm - N/A   Clear
7:56 AM 75.9 °F - 66.9 °F 74% 30.04 in 10.0 mi WSW 5.8 mph - N/A   Clear
8:56 AM 78.1 °F - 68.0 °F 71% 30.04 in 10.0 mi WSW 8.1 mph - N/A   Clear
9:56 AM 84.0 °F 87.0 °F 68.0 °F 58% 30.03 in 10.0 mi WSW 4.6 mph - N/A   Mostly Cloudy
10:56 AM 86.0 °F 90.7 °F 70.0 °F 59% 30.02 in 10.0 mi Variable 4.6 mph - N/A   Clear
11:56 AM 87.1 °F 92.0 °F 70.0 °F 57% 30.02 in 10.0 mi West 8.1 mph - N/A   Mostly Cloudy
12:56 PM 87.1 °F 92.0 °F 70.0 °F 57% 30.01 in 10.0 mi WNW 9.2 mph - N/A   Clear
1:56 PM 90.0 °F 96.4 °F 71.1 °F 54% 29.99 in 10.0 mi NNW 4.6 mph - N/A   Mostly Cloudy
2:56 PM 91.0 °F 97.6 °F 71.1 °F 52% 29.96 in 10.0 mi Variable 4.6 mph - N/A   Clear
3:56 PM 88.0 °F 94.7 °F 72.0 °F 59% 29.95 in 10.0 mi SSW 4.6 mph - N/A   Mostly Cloudy
4:56 PM 84.0 °F 91.9 °F 75.0 °F 74% 29.96 in 10.0 mi SSW 5.8 mph - N/A   Clear
5:56 PM 82.9 °F 90.8 °F 75.9 °F 79% 29.95 in 10.0 mi SSW 9.2 mph - 0.00 in Rain Light Rain
6:56 PM 78.1 °F - 75.0 °F 90% 29.92 in 10.0 mi Calm Calm - 0.03 in   Overcast
7:56 PM 77.0 °F - 73.0 °F 88% 29.95 in 10.0 mi WSW 4.6 mph - N/A   Overcast
8:56 PM 75.0 °F - 73.0 °F 94% 29.95 in 10.0 mi SSW 3.5 mph - N/A   Clear
9:56 PM 73.9 °F - 72.0 °F 93% 29.97 in 10.0 mi WSW 3.5 mph - N/A   Clear
10:56 PM 73.0 °F - 71.1 °F 93% 29.96 in 10.0 mi SW 3.5 mph - N/A   Clear
11:56 PM 73.0 °F - 71.1 °F 93% 29.95 in 10.0 mi Calm Calm - N/A   Clear